Location: Newark
(48.6461°N, 4.3644°W)
Time: 12:50:57
(UTC+00:00)

S-56A Canister/Altair - Pass Details

Date: 19 January 2020
Orbit: 633 x 2500 km, 38.9° (Epoch: 24 February)

Event Time Altitude Azimuth Distance (km) Brightness Sun altitude
Rises 02:31:04 0° 259° (WSW) 2,933 - -52.6°
Reaches altitude 10° 02:33:43 10° 242° (WSW) 2,089 - -52.2°
Maximum altitude 02:37:11 21° 193° (SSW) 1,641 - -51.8°
Drops below altitude 10° 02:41:17 10° 146° (SSE) 2,510 - -51.2°
Sets 02:44:51 0° 131° (SE) 3,738 - -50.7°
